When you browse on this site, cookies collect data to enhance your experience and personalize the content and advertising you see.
Visit our Privacy Policy to learn more. By continuing to use the site, you agree to this use of cookies and data.
  • In Czech Republic
  • List of Countries
  • For 7 days
  • Water Temperature
  • Satellite Maps
  • Weather Map
  • Weather Widgets
  • user-avatar
    Login

    Hourly Weather Zacatecas

    Today, 20 June, Thursday

    Time Temperature Precipitation Wind Pressure Humidity
    00:00 +18°C° 0.3 mm 4 mps 590 mmHg 70%
    01:00 +18°C° 0.3 mm 3 mps 590 mmHg 71%
    02:00 +17°C° 0.3 mm 3 mps 589 mmHg 72%
    03:00 +17°C° 0.1 mm 2 mps 589 mmHg 73%
    04:00 +18°C° 0.1 mm 1 mps 589 mmHg 73%
    05:00 +18°C° 0.1 mm 1 mps 589 mmHg 74%
    06:00 +19°C° 0 mm 1 mps 590 mmHg 69%
    07:00 +20°C° 0 mm 1 mps 590 mmHg 65%
    08:00 +21°C° 0 mm 1 mps 591 mmHg 60%
    09:00 +23°C° 0.1 mm 1 mps 591 mmHg 54%
    10:00 +24°C° 0.1 mm 1 mps 592 mmHg 48%
    11:00 +26°C° 0.1 mm 1 mps 592 mmHg 42%
    12:00 +26°C° 0 mm 1 mps 592 mmHg 40%
    13:00 +27°C° 0 mm 1 mps 591 mmHg 38%
    14:00 +27°C° 0 mm 1 mps 591 mmHg 36%
    15:00 +27°C° 0.2 mm 2 mps 590 mmHg 41%
    16:00 +26°C° 0.2 mm 3 mps 590 mmHg 46%
    17:00 +25°C° 0.2 mm 4 mps 589 mmHg 50%
    18:00 +22°C° 0.7 mm 3 mps 589 mmHg 56%
    19:00 +21°C° 0.7 mm 3 mps 589 mmHg 62%
    20:00 +20°C° 0.7 mm 2 mps 589 mmHg 67%
    21:00 +20°C° 0.6 mm 2 mps 590 mmHg 68%
    22:00 +20°C° 0.6 mm 2 mps 590 mmHg 69%
    23:00 +19°C° 0.6 mm 2 mps 590 mmHg 70%

    Tomorrow, 21 June, Friday

    Time Temperature Precipitation Wind Pressure Humidity
    00:00 +20°C° 0.7 mm 1 mps 590 mmHg 70%
    01:00 +20°C° 0.7 mm 1 mps 590 mmHg 70%
    02:00 +20°C° 0.7 mm 1 mps 589 mmHg 71%
    03:00 +20°C° 0.1 mm 1 mps 589 mmHg 70%
    04:00 +20°C° 0.1 mm 1 mps 589 mmHg 70%
    05:00 +20°C° 0.1 mm 1 mps 589 mmHg 70%
    06:00 +21°C° 0 mm 1 mps 590 mmHg 64%
    07:00 +22°C° 0 mm 1 mps 591 mmHg 58%
    08:00 +23°C° 0 mm 1 mps 591 mmHg 52%
    09:00 +25°C° 0 mm 1 mps 592 mmHg 47%
    10:00 +26°C° 0 mm 1 mps 592 mmHg 42%
    11:00 +27°C° 0 mm 1 mps 592 mmHg 37%
    12:00 +27°C° 0 mm 1 mps 592 mmHg 36%
    13:00 +28°C° 0 mm 1 mps 591 mmHg 36%
    14:00 +28°C° 0 mm 1 mps 591 mmHg 35%
    15:00 +26°C° 0.7 mm 2 mps 590 mmHg 45%
    16:00 +24°C° 0.7 mm 3 mps 589 mmHg 54%
    17:00 +21°C° 0.7 mm 4 mps 588 mmHg 63%
    18:00 +20°C° 1.4 mm 4 mps 588 mmHg 66%
    19:00 +19°C° 1.4 mm 3 mps 588 mmHg 69%
    20:00 +19°C° 1.4 mm 3 mps 588 mmHg 72%
    21:00 +19°C° 0.1 mm 2 mps 589 mmHg 71%
    22:00 +19°C° 0.1 mm 2 mps 589 mmHg 70%
    23:00 +20°C° 0.1 mm 1 mps 590 mmHg 69%

    Day after tomorrow, 22 June, Saturday

    Time Temperature Precipitation Wind Pressure Humidity
    00:00 +20°C° 0 mm 1 mps 589 mmHg 70%
    01:00 +19°C° 0 mm 1 mps 589 mmHg 71%
    02:00 +19°C° 0 mm 1 mps 589 mmHg 71%
    03:00 +19°C° 0 mm 1 mps 589 mmHg 73%
    04:00 +19°C° 0 mm 1 mps 589 mmHg 74%
    05:00 +16°C° 0 mm 0 mps 589 mmHg 75%
    06:00 +20°C° 0 mm 1 mps 590 mmHg 67%
    07:00 +21°C° 0 mm 1 mps 591 mmHg 60%
    08:00 +23°C° 0 mm 1 mps 592 mmHg 52%
    09:00 +24°C° 0 mm 1 mps 592 mmHg 48%
    10:00 +26°C° 0 mm 2 mps 592 mmHg 44%
    11:00 +27°C° 0 mm 2 mps 592 mmHg 40%
    12:00 +27°C° 0 mm 2 mps 592 mmHg 39%
    13:00 +28°C° 0 mm 2 mps 592 mmHg 38%
    14:00 +28°C° 0 mm 2 mps 591 mmHg 37%
    15:00 +27°C° 0.2 mm 2 mps 591 mmHg 42%
    16:00 +26°C° 0.2 mm 2 mps 590 mmHg 47%
    17:00 +24°C° 0.2 mm 3 mps 589 mmHg 52%
    18:00 +24°C° 0.2 mm 2 mps 590 mmHg 55%
    19:00 +23°C° 0.2 mm 2 mps 590 mmHg 58%
    20:00 +23°C° 0.2 mm 1 mps 590 mmHg 61%
    21:00 +21°C° 0.5 mm 2 mps 590 mmHg 64%
    22:00 +21°C° 0.5 mm 2 mps 590 mmHg 67%
    23:00 +20°C° 0.5 mm 2 mps 590 mmHg 70%

    23 June, Sunday

    Time Temperature Precipitation Wind Pressure Humidity
    00:00 +20°C° 0.7 mm 2 mps 590 mmHg 72%
    01:00 +20°C° 0.7 mm 1 mps 590 mmHg 74%
    02:00 +18°C° 0.7 mm 0 mps 589 mmHg 75%
    03:00 +18°C° 0.1 mm 0 mps 589 mmHg 76%
    04:00 +20°C° 0.1 mm 1 mps 589 mmHg 77%
    05:00 +19°C° 0.1 mm 1 mps 589 mmHg 77%
    06:00 +20°C° 0 mm 1 mps 590 mmHg 71%
    07:00 +22°C° 0 mm 1 mps 590 mmHg 64%
    08:00 +23°C° 0 mm 1 mps 591 mmHg 57%
    09:00 +24°C° 0.1 mm 1 mps 591 mmHg 50%
    10:00 +26°C° 0.1 mm 1 mps 592 mmHg 42%
    11:00 +27°C° 0.1 mm 1 mps 592 mmHg 35%
    12:00 +28°C° 0 mm 1 mps 591 mmHg 34%
    13:00 +28°C° 0 mm 2 mps 591 mmHg 32%
    14:00 +28°C° 0 mm 2 mps 590 mmHg 31%
    15:00 +28°C° 0 mm 3 mps 590 mmHg 33%
    16:00 +28°C° 0 mm 3 mps 590 mmHg 35%
    17:00 +27°C° 0 mm 4 mps 589 mmHg 36%
    18:00 +26°C° 0 mm 4 mps 589 mmHg 44%
    19:00 +23°C° 0 mm 4 mps 589 mmHg 51%
    20:00 +21°C° 0 mm 4 mps 588 mmHg 59%
    21:00 +21°C° 0 mm 4 mps 589 mmHg 60%
    22:00 +21°C° 0 mm 3 mps 589 mmHg 61%
    23:00 +21°C° 0 mm 2 mps 589 mmHg 63%

    24 June, Monday

    Time Temperature Precipitation Wind Pressure Humidity
    00:00 +20°C° 0 mm 2 mps 589 mmHg 65%
    01:00 +21°C° 0 mm 1 mps 589 mmHg 68%
    02:00 +20°C° 0 mm 1 mps 588 mmHg 70%
    03:00 +18°C° 0 mm 0 mps 588 mmHg 70%
    04:00 +18°C° 0 mm 0 mps 588 mmHg 70%
    05:00 +18°C° 0 mm 0 mps 588 mmHg 70%
    06:00 +19°C° 0 mm 0 mps 589 mmHg 65%
    07:00 +20°C° 0 mm 0 mps 589 mmHg 61%
    08:00 +22°C° 0 mm 1 mps 590 mmHg 57%
    09:00 +24°C° 0 mm 2 mps 590 mmHg 50%
    10:00 +26°C° 0 mm 2 mps 591 mmHg 43%
    11:00 +28°C° 0 mm 3 mps 591 mmHg 35%
    12:00 +28°C° 0 mm 4 mps 591 mmHg 35%
    13:00 +28°C° 0 mm 4 mps 590 mmHg 34%
    14:00 +28°C° 0 mm 5 mps 590 mmHg 33%
    15:00 +27°C° 0 mm 5 mps 590 mmHg 35%
    16:00 +27°C° 0 mm 6 mps 589 mmHg 38%
    17:00 +26°C° 0 mm 6 mps 589 mmHg 40%
    18:00 +25°C° 0.1 mm 5 mps 589 mmHg 45%
    19:00 +23°C° 0.1 mm 5 mps 589 mmHg 50%
    20:00 +22°C° 0.1 mm 4 mps 589 mmHg 55%
    21:00 +21°C° 1 mm 3 mps 589 mmHg 62%
    22:00 +20°C° 1 mm 2 mps 588 mmHg 70%
    23:00 +19°C° 1 mm 2 mps 588 mmHg 77%

    25 June, Tuesday

    Time Temperature Precipitation Wind Pressure Humidity
    00:00 +20°C° 0.9 mm 1 mps 588 mmHg 75%
    01:00 +20°C° 0.9 mm 1 mps 588 mmHg 74%
    02:00 +20°C° 0.9 mm 1 mps 588 mmHg 72%
    03:00 +20°C° 0 mm 1 mps 588 mmHg 74%
    04:00 +20°C° 0 mm 1 mps 588 mmHg 76%
    05:00 +19°C° 0 mm 1 mps 588 mmHg 78%
    06:00 +20°C° 0 mm 1 mps 589 mmHg 73%
    07:00 +21°C° 0 mm 1 mps 589 mmHg 69%
    08:00 +22°C° 0 mm 1 mps 590 mmHg 64%
    09:00 +23°C° 0.1 mm 2 mps 590 mmHg 57%
    10:00 +25°C° 0.1 mm 3 mps 591 mmHg 49%
    11:00 +27°C° 0.1 mm 4 mps 591 mmHg 42%
    12:00 +27°C° 0 mm 5 mps 591 mmHg 40%
    13:00 +27°C° 0 mm 5 mps 591 mmHg 38%
    14:00 +28°C° 0 mm 6 mps 590 mmHg 36%
    15:00 +28°C° 0 mm 6 mps 590 mmHg 37%
    16:00 +27°C° 0 mm 5 mps 590 mmHg 37%
    17:00 +27°C° 0 mm 5 mps 590 mmHg 38%
    18:00 +26°C° 0.1 mm 5 mps 590 mmHg 44%
    19:00 +23°C° 0.1 mm 4 mps 590 mmHg 50%
    20:00 +22°C° 0.1 mm 4 mps 590 mmHg 55%
    21:00 +21°C° 0.2 mm 4 mps 590 mmHg 62%
    22:00 +20°C° 0.2 mm 4 mps 590 mmHg 69%
    23:00 +19°C° 0.2 mm 4 mps 590 mmHg 76%
    Show more